Home   Weather   Foz do Iguaçu   Past weeks

Flag for Brazil Past Weather in Foz do Iguaçu, Paraná, Brazil — Yesterday and Last 2 Weeks

Now
91 °F

Scattered clouds.


Feels Like: 99 °F
Forecast: 69 / 87 °F
Wind: 5 mph from Northeast

Location: Iguazu Aerodrome

Current Time: Jan 20, 2017 at 6:10:23 pm

Latest Report: Jan 20, 2017 at 5:00 pm


Visibility: N/A

Pressure: 29.98 "Hg

Humidity: 52%

Dew Point: 72 °F

Location of Foz do IguaçuLocation

Past Weather in Foz do Iguaçu — Graph

°F

Foz do Iguaçu Temperature Yesterday

Maximum temperature yesterday: 91 °F (at 3:00 pm)
Minimum temperature yesterday: 72 °F (at 7:00 am)
Average temperature yesterday: 81 °F

High & Low Weather Summary for the Past Weeks

 TemperatureHumidityPressure
High95 °F (Jan 12, 6:00 pm)100% (Jan 5, 5:00 pm)30.07 "Hg (Jan 5, 5:00 pm)
Low68 °F (Jan 11, 5:00 am)49% (Jan 8, 6:00 pm)29.68 "Hg (Jan 17, 5:00 pm)
Average80 °F84%29.86 "Hg
* Reported Jan 5 4:00 pm — Jan 20 4:00 pm, Foz do Iguaçu, Weather by CustomWeather, © 2017

Note: Actual official high and low records may vary slightly from our data, if they occured in-between our weather recording intervals... More about our weather records

Advertising

Foz do Iguaçu Weather History for the Previous 24 Hours

Scroll right to see more
 ConditionsComfort  
Time TempWeatherWind HumidityBarometerVisibility
4:00 pm
Fri, Jan 20
90 °FScattered clouds.No wind52%30.01 "HgN/A
3:00 pm88 °FScattered clouds.5 mph55%30.04 "HgN/A
2:00 pm86 °FScattered clouds.7 mph62%30.07 "HgN/A
1:00 pm86 °FPartly sunny.7 mph62%30.07 "HgN/A
12:00 pm82 °FScattered clouds.7 mph66%30.07 "HgN/A
11:00 am82 °FSunny.8 mph66%30.07 "Hg10 mi
10:00 am79 °FSunny.10 mph74%30.07 "Hg10 mi
9:00 am77 °FSunny.7 mph83%30.07 "Hg10 mi
8:00 am72 °FSunny.2 mph94%30.07 "Hg10 mi
7:00 am70 °FClear.5 mph100%30.04 "Hg10 mi
6:00 am72 °FClear.7 mph94%30.01 "Hg10 mi
5:00 am72 °FClear.6 mph94%30.01 "Hg10 mi
4:00 am73 °FClear.5 mph94%29.98 "Hg10 mi
3:00 am73 °FClear.7 mph94%29.98 "Hg10 mi
2:00 am77 °FClear.5 mph83%29.98 "Hg10 mi
1:00 am77 °FClear.3 mph89%29.98 "Hg10 mi
12:00 am79 °FClear.8 mph84%29.98 "Hg10 mi
11:00 pm
Thu, Jan 19
79 °FClear.6 mph89%29.95 "Hg10 mi
10:00 pm81 °FClear.7 mph84%29.92 "Hg10 mi
9:00 pm81 °FClear.No wind89%29.89 "Hg10 mi
8:00 pm84 °FSunny.No wind79%29.89 "Hg10 mi
7:00 pm84 °FScattered clouds.No wind79%29.86 "HgN/A
6:00 pm88 °FPartly sunny.6 mph62%29.89 "HgN/A
Weather by CustomWeather, © 2017

See weather overviewHow to use our weather pages